EN

Hourly Weather Torfozavoda

Today, 12 April, Monday

Time Temperature Precipitation Wind Pressure Humidity
00:00 +8°C° 0 mm 4 mps 754 mmHg 64%
01:00 +8°C° 0 mm 4 mps 754 mmHg 65%
02:00 +8°C° 0 mm 5 mps 754 mmHg 66%
03:00 +7°C° 0 mm 5 mps 754 mmHg 66%
04:00 +7°C° 0 mm 5 mps 754 mmHg 67%
05:00 +6°C° 0 mm 5 mps 754 mmHg 67%
06:00 +7°C° 0 mm 5 mps 754 mmHg 65%
07:00 +8°C° 0 mm 5 mps 754 mmHg 63%
08:00 +8°C° 0 mm 6 mps 754 mmHg 61%
09:00 +10°C° 0 mm 6 mps 753 mmHg 55%
10:00 +11°C° 0 mm 7 mps 753 mmHg 49%
11:00 +12°C° 0 mm 7 mps 753 mmHg 44%
12:00 +14°C° 0 mm 7 mps 753 mmHg 41%
13:00 +15°C° 0 mm 7 mps 752 mmHg 39%
14:00 +15°C° 0 mm 6 mps 752 mmHg 37%
15:00 +15°C° 0 mm 6 mps 752 mmHg 41%
16:00 +15°C° 0 mm 5 mps 751 mmHg 44%
17:00 +14°C° 0 mm 4 mps 751 mmHg 48%
18:00 +13°C° 0 mm 4 mps 751 mmHg 51%
19:00 +13°C° 0 mm 3 mps 751 mmHg 54%
20:00 +12°C° 0 mm 3 mps 751 mmHg 57%
21:00 +12°C° 0 mm 3 mps 751 mmHg 58%
22:00 +11°C° 0 mm 3 mps 751 mmHg 60%
23:00 +11°C° 0 mm 3 mps 751 mmHg 61%

Tomorrow, 13 April, Tuesday

Time Temperature Precipitation Wind Pressure Humidity
00:00 +10°C° 0.1 mm 3 mps 751 mmHg 66%
01:00 +10°C° 0.1 mm 2 mps 751 mmHg 70%
02:00 +10°C° 0.1 mm 2 mps 751 mmHg 75%
03:00 +9°C° 0.1 mm 2 mps 751 mmHg 79%
04:00 +8°C° 0.1 mm 3 mps 752 mmHg 83%
05:00 +7°C° 0.1 mm 3 mps 752 mmHg 87%
06:00 +6°C° 0 mm 4 mps 752 mmHg 88%
07:00 +6°C° 0 mm 4 mps 752 mmHg 89%
08:00 +5°C° 0 mm 4 mps 753 mmHg 90%
09:00 +5°C° 0 mm 4 mps 753 mmHg 89%
10:00 +5°C° 0 mm 4 mps 753 mmHg 88%
11:00 +5°C° 0 mm 4 mps 753 mmHg 86%
12:00 +5°C° 0.1 mm 5 mps 753 mmHg 85%
13:00 +5°C° 0.1 mm 5 mps 754 mmHg 84%
14:00 +5°C° 0.1 mm 5 mps 754 mmHg 83%
15:00 +5°C° 0 mm 5 mps 753 mmHg 82%
16:00 +5°C° 0 mm 5 mps 753 mmHg 81%
17:00 +5°C° 0 mm 5 mps 753 mmHg 80%
18:00 +5°C° 0 mm 5 mps 753 mmHg 80%
19:00 +3°C° 0 mm 5 mps 753 mmHg 79%
20:00 +3°C° 0 mm 5 mps 753 mmHg 78%
21:00 +3°C° 0 mm 5 mps 753 mmHg 76%
22:00 +3°C° 0 mm 5 mps 752 mmHg 75%
23:00 +3°C° 0 mm 5 mps 752 mmHg 73%

Day after tomorrow, 14 April, Wednesday

Time Temperature Precipitation Wind Pressure Humidity
00:00 +3°C° 0 mm 5 mps 752 mmHg 73%
01:00 +3°C° 0 mm 5 mps 752 mmHg 72%
02:00 +3°C° 0 mm 5 mps 751 mmHg 72%
03:00 +3°C° 0 mm 5 mps 751 mmHg 73%
04:00 +2°C° 0 mm 6 mps 751 mmHg 75%
05:00 +2°C° 0 mm 6 mps 751 mmHg 76%
06:00 +2°C° 0 mm 6 mps 751 mmHg 80%
07:00 +2°C° 0 mm 6 mps 751 mmHg 85%
08:00 +1°C° 0 mm 6 mps 751 mmHg 89%
09:00 +1°C° 0.1 mm 6 mps 751 mmHg 88%
10:00 +2°C° 0.1 mm 6 mps 751 mmHg 87%
11:00 +2°C° 0.1 mm 6 mps 751 mmHg 85%
12:00 +2°C° 0.3 mm 6 mps 750 mmHg 86%
13:00 +2°C° 0.3 mm 6 mps 750 mmHg 88%
14:00 +1°C° 0.3 mm 6 mps 750 mmHg 89%
15:00 +1°C° 0.5 mm 6 mps 750 mmHg 91%
16:00 +1°C° 0.5 mm 6 mps 750 mmHg 93%
17:00 +1°C° 0.5 mm 6 mps 750 mmHg 95%
18:00 +1°C° 0.6 mm 6 mps 750 mmHg 95%
19:00 +1°C° 0.6 mm 6 mps 750 mmHg 96%
20:00 +1°C° 0.6 mm 5 mps 750 mmHg 96%
21:00 +1°C° 0.2 mm 5 mps 750 mmHg 96%
22:00 +1°C° 0.2 mm 5 mps 750 mmHg 96%
23:00 +1°C° 0.2 mm 5 mps 750 mmHg 95%

15 April, Thursday

Time Temperature Precipitation Wind Pressure Humidity
00:00 +1°C° 0.1 mm 5 mps 749 mmHg 96%
01:00 +1°C° 0.1 mm 5 mps 749 mmHg 96%
02:00 +1°C° 0.1 mm 4 mps 749 mmHg 96%
03:00 +1°C° 0.1 mm 4 mps 749 mmHg 97%
04:00 +3°C° 0.1 mm 4 mps 749 mmHg 97%
05:00 +3°C° 0.1 mm 4 mps 749 mmHg 97%
06:00 +3°C° 0 mm 4 mps 749 mmHg 97%
07:00 +4°C° 0 mm 4 mps 749 mmHg 96%
08:00 +4°C° 0 mm 4 mps 750 mmHg 96%
09:00 +5°C° 0 mm 4 mps 750 mmHg 94%
10:00 +6°C° 0 mm 4 mps 750 mmHg 91%
11:00 +7°C° 0 mm 4 mps 750 mmHg 89%
12:00 +8°C° 0.1 mm 4 mps 750 mmHg 88%
13:00 +8°C° 0.1 mm 4 mps 750 mmHg 86%
14:00 +8°C° 0.1 mm 4 mps 750 mmHg 85%
15:00 +8°C° 0.1 mm 4 mps 750 mmHg 85%
16:00 +8°C° 0.1 mm 4 mps 750 mmHg 85%
17:00 +8°C° 0.1 mm 4 mps 750 mmHg 84%
18:00 +7°C° 0 mm 4 mps 750 mmHg 86%
19:00 +6°C° 0 mm 5 mps 750 mmHg 88%
20:00 +5°C° 0 mm 5 mps 751 mmHg 90%
21:00 +5°C° 0 mm 4 mps 751 mmHg 90%
22:00 +5°C° 0 mm 4 mps 751 mmHg 91%
23:00 +5°C° 0 mm 4 mps 751 mmHg 91%

16 April, Friday

Time Temperature Precipitation Wind Pressure Humidity
00:00 +5°C° 0 mm 4 mps 751 mmHg 90%
01:00 +5°C° 0 mm 4 mps 750 mmHg 90%
02:00 +5°C° 0 mm 4 mps 750 mmHg 89%
03:00 +5°C° 0 mm 4 mps 750 mmHg 89%
04:00 +5°C° 0 mm 4 mps 750 mmHg 90%
05:00 +4°C° 0 mm 4 mps 750 mmHg 90%
06:00 +5°C° 0 mm 4 mps 750 mmHg 90%
07:00 +5°C° 0 mm 4 mps 751 mmHg 90%
08:00 +5°C° 0 mm 5 mps 751 mmHg 90%
09:00 +5°C° 0.1 mm 5 mps 751 mmHg 89%
10:00 +6°C° 0.1 mm 5 mps 751 mmHg 88%
11:00 +6°C° 0.1 mm 5 mps 751 mmHg 86%
12:00 +6°C° 0 mm 5 mps 752 mmHg 84%
13:00 +7°C° 0 mm 6 mps 752 mmHg 83%
14:00 +7°C° 0 mm 6 mps 752 mmHg 81%
15:00 +7°C° 0 mm 6 mps 752 mmHg 82%
16:00 +7°C° 0 mm 6 mps 752 mmHg 83%
17:00 +7°C° 0 mm 5 mps 753 mmHg 84%
18:00 +6°C° 0 mm 5 mps 753 mmHg 85%
19:00 +6°C° 0 mm 5 mps 753 mmHg 86%
20:00 +6°C° 0 mm 5 mps 754 mmHg 86%
21:00 +6°C° 0 mm 5 mps 754 mmHg 86%
22:00 +6°C° 0 mm 5 mps 754 mmHg 85%
23:00 +6°C° 0 mm 5 mps 754 mmHg 84%

17 April, Saturday

Time Temperature Precipitation Wind Pressure Humidity
00:00 +6°C° 0 mm 5 mps 755 mmHg 82%
01:00 +6°C° 0 mm 5 mps 755 mmHg 81%
02:00 +6°C° 0 mm 5 mps 755 mmHg 80%
03:00 +5°C° 0 mm 5 mps 755 mmHg 78%
04:00 +5°C° 0 mm 5 mps 755 mmHg 77%
05:00 +5°C° 0 mm 5 mps 756 mmHg 76%
06:00 +5°C° 0 mm 6 mps 756 mmHg 74%
07:00 +5°C° 0 mm 6 mps 756 mmHg 72%
08:00 +5°C° 0 mm 6 mps 757 mmHg 71%
09:00 +7°C° 0 mm 6 mps 757 mmHg 66%
10:00 +9°C° 0 mm 6 mps 757 mmHg 61%
11:00 +10°C° 0 mm 6 mps 758 mmHg 56%
12:00 +11°C° 0 mm 6 mps 758 mmHg 53%
13:00 +13°C° 0 mm 6 mps 758 mmHg 51%
14:00 +13°C° 0 mm 6 mps 758 mmHg 48%
15:00 +13°C° 0 mm 6 mps 758 mmHg 49%
16:00 +13°C° 0 mm 6 mps 758 mmHg 50%
17:00 +13°C° 0 mm 6 mps 758 mmHg 50%
18:00 +10°C° 0 mm 5 mps 758 mmHg 54%
19:00 +9°C° 0 mm 5 mps 759 mmHg 57%
20:00 +7°C° 0 mm 4 mps 759 mmHg 61%
21:00 +7°C° 0 mm 4 mps 759 mmHg 64%
22:00 +6°C° 0 mm 4 mps 760 mmHg 67%
23:00 +5°C° 0 mm 4 mps 760 mmHg 70%
Show more

We Need Your Consent

Meteoprog and our Service Providers may store and access personal data such as cookies, device identifiers or other similar technologies on your device and process such data to personalise content and ads, as well as provide social media features and to analyse the traffic.

  • Store and/or access information on your device

    Cookies, device identifiers or other information can be stored or accessed on your device for the purposes indicated above.

  • Personalised ads and content, ad and content measurement, audience insights, and products development

    Ads and content can be personalised based on a profile. More data can be added to better personalise ads and content. Ad and content performance can be measured. Insights about the audience who saw the ads and content can be derived. Such data can be used to develop or improve user’s experience, systems and software.

By clicking ‘I Agree’ you will allow the use of indicated cookies, device identifiers, web beacons or other similar technologies. Your settings can be changed in the browser on your device.

For certain purposes, legitimate interests may be relied on, rather than consent. You can read more about this in our Privacy and Cookie Policy.